Location: Unspecified
(0.0000°N, 0.0000°E)
Time: 15:08:35
(UTC+00:00)

STARLINK-36836 - Pass Details

Date: 04 March 2026
Orbit: 263 x 264 km, 53.2° (Epoch: 6 March)

Event Time Altitude Azimuth Distance (km) Brightness Sun altitude
Rises 19:01:03 0° 218° (SW) 1,823 6.0 -12.3°
Reaches altitude 10° 19:02:55 10° 221° (SW) 1,025 4.7 -12.7°
Maximum altitude 19:05:09 63° 303° (WNW) 287 1.4 -13.3°
Enters shadow 19:06:28 21° 21° (NNE) 645 2.7 -13.6°
